Location: Eitenthal
(48.2667°N, 15.2667°E)
Time: 17:48:40
(UTC+00:00)

Daily predictions for brighter satellites

Satellite Brightness Start Highest point End
(mag) Time Altitude Azimuth Time Altitude Azimuth Time Altitude Azimuth
BREEZE-M DEB (TANK) 3.3 18:55:36 10° SW 18:58:51 52° SE 19:09:01 10° ENE
ATLAS 3B R/B 4.2 18:55:18 10° NW 19:01:41 36° WSW 19:08:15 10° S
Cosmos 1633 3.9 19:01:55 10° SSW 19:05:23 43° WNW 19:08:51 10° N
COSMOS 2428 4.2 19:01:35 10° N 19:06:14 25° NE 19:10:50 10° E
ERS-2 2.7 19:03:38 10° NNE 19:07:03 37° E 19:10:28 10° S
COSMOS 2455 3.9 19:04:21 10° SSE 19:08:51 23° ESE 19:13:23 10° ENE
GEOS 3 Rocket 3.6 19:05:14 10° NE 19:10:23 60° SE 19:15:26 10° SSW
Meteor 2-3 Rocket 3.8 19:09:08 10° S 19:14:48 77° E 19:20:36 10° NNE
SAR-Lupe-1 4.2 19:12:02 10° NNE 19:15:38 81° WNW 19:19:12 10° SSW
Cosmos 2082 Rocket 4.3 19:10:41 10° WSW 19:15:42 32° NW 19:20:48 10° NNE
Cosmos 220 Rocket 4.0 19:12:16 10° NNW 19:16:40 85° ENE 19:21:04 10° SSE
Cosmos 292 Rocket 4.4 19:12:28 10° N 19:17:01 41° ENE 19:21:28 10° SE
Cosmos 2360 Rocket 2.3 19:11:26 10° NNW 19:17:03 66° ENE 19:22:40 10° SE
NOSS 2-1 (C) 2.9 19:14:10 10° SSW 19:17:24 54° SE 19:20:41 10° NE
SAR-Lupe-4 3.6 19:14:18 10° NNE 19:17:54 87° WNW 19:21:29 10° SSW
Ariane Rocket 3.1 19:13:20 10° SSE 19:18:25 83° WSW 19:23:31 10° NNW
Terra 3.7 19:16:30 10° E 19:19:25 16° ENE 19:22:20 10° NNE
Cosmos 2098 Rocket 4.2 19:16:44 10° SSW 19:20:11 43° WNW 19:24:30 10° N
Cosmos 1328 Rocket 4.1 19:16:02 10° N 19:20:18 44° ENE 19:24:31 10° SSE
Helios 1A Rocket 4.2 19:17:24 10° S 19:21:15 40° W 19:25:09 10° NNW
Cosmos 1174 3.3 19:21:22 10° NNW 19:24:20 56° NE 19:26:57 13° SE
SPOT 3 Rocket 3.7 19:19:57 10° SSE 19:25:07 65° ENE 19:30:17 10° N
NOSS 2-1 (D) 2.7 19:21:54 10° SSW 19:25:11 66° SE 19:28:33 10° NE
Cosmos 1766 Rocket 3.8 19:22:08 10° S 19:26:22 50° E 19:30:36 10° NNE
Cosmos 2151 3.8 19:24:18 10° SSW 19:28:29 56° WNW 19:32:43 10° N
Cosmos 1624 Rocket 4.0 19:23:53 10° NNW 19:29:08 80° ENE 19:34:23 10° SSE
Meteor 2-6 Rocket 4.4 19:23:59 10° N 19:29:14 50° ENE 19:34:17 11° SSE
Gblst 52 Del rocket 4.5 19:25:29 10° WNW 19:31:17 79° NNE 19:37:53 10° ESE
Cosmos 2084 3.7 19:27:15 10° SW 19:31:19 72° NW 19:35:30 10° NE
Cosmos 1553 Rocket 4.2 19:25:59 10° N 19:31:58 56° ENE 19:37:58 10° SSE
Resurs 01 Rocket 1.7 19:28:36 10° SSE 19:33:03 87° W 19:37:33 10° NNW
Cosmos 1420 Rocket 4.2 19:28:53 10° NNW 19:34:11 62° ENE 19:38:52 13° SE
Cosmos 1812 2.8 19:36:55 10° N 19:40:46 61° ENE 19:44:03 13° SSE
Cosmos 1782 3.2 19:38:56 10° NNW 19:42:54 63° W 19:46:50 10° S
Landsat 7 3.9 19:38:44 10° S 19:43:30 78° WSW 19:48:17 10° NNW
ERS-1 Rocket 3.8 19:40:14 14° SE 19:43:58 35° ENE 19:48:31 10° N
Cosmos 1862 3.6 19:40:38 10° SSE 19:44:25 45° E 19:48:14 10° NNE
Cosmos 1833 4.3 19:42:30 10° SSW 19:48:11 62° ESE 19:53:53 10° NNE
SL-27 R/B 2.4 19:45:27 10° SSW 19:49:02 83° ESE 19:52:39 10° NNE
Cosmos 2333 Rocket 2.4 19:46:38 10° NNW 19:52:16 63° ENE 19:56:33 18° SE
BREEZE-M DEB (TANK) 3.6 19:50:46 10° W 19:53:45 33° SSW 19:58:29 15° SSE
Cosmos 2322 Rocket 3.2 19:48:49 10° NW 19:54:05 42° WSW 19:59:20 10° S
Cosmos 2237 Rocket 3.9 19:49:47 10° N 19:54:14 23° NE 19:58:39 10° E
Cosmos 2322 3.9 19:49:36 10° NNW 19:55:19 63° ENE 19:59:34 18° SE
SPOT 5 3.3 19:52:44 18° SE 19:55:34 39° ENE 19:59:48 10° N
USA 234 4.5 19:49:56 10° ENE 19:56:01 42° N 20:02:05 10° WNW
ARIANE 5 R/B 3.0 19:54:19 18° SE 19:57:20 49° ENE 20:01:36 10° N
Cosmos 1417 Rocket 4.5 19:54:08 10° N 20:00:28 75° E 20:05:47 15° SSE
Cosmos 1452 Rocket 3.8 19:55:28 10° NNW 20:00:38 54° ENE 20:04:09 20° SE
BREEZE-M R/B 3.6 19:57:15 10° SSW 20:01:18 25° SSE 20:02:47 19° ESE
Cosmos 1500 Rocket 4.2 20:03:07 21° SE 20:05:31 37° E 20:09:37 10° NNE
Cosmos 2219 Rocket 2.3 20:00:50 10° NNW 20:06:25 66° ENE 20:10:11 21° SE
S3M 4.1 20:00:09 10° N 20:06:33 69° ENE 20:11:31 17° SSE
Cosmos 2056 Rocket 4.3 20:05:44 10° NNW 20:10:51 48° WSW 20:15:29 12° S
ATLAS 5 CENTAUR R/B 2.4 20:07:23 10° NW 20:12:47 67° NE 20:17:08 21° SE
Meteor 1-27 Rocket 3.9 20:09:42 10° N 20:15:20 58° ENE 20:18:58 23° SSE
Meteor 2-14 Rocket 4.5 20:11:07 10° S 20:17:16 85° W 20:23:27 10° N
Sich 1 4.4 20:16:31 21° ESE 20:17:24 22° E 20:20:44 10° NE
Spot 2 Rocket 3.5 20:14:03 19° SSE 20:17:48 89° WSW 20:22:56 10° NNW
SPOT 1/Viking Rocket 4.0 20:14:27 12° S 20:19:08 59° W 20:24:19 10° NNW
USA 245 3.6 20:16:53 18° S 20:19:58 62° WSW 20:23:26 10° NNW
Cosmos 1408 Rocket 3.5 20:17:01 12° S 20:20:57 88° WNW 20:25:17 10° N
NOSS 2-1 (E) 4.5 20:20:30 10° WSW 20:23:34 38° NW 20:26:55 10° NNE
Cosmos 1655 Rocket 4.0 20:19:07 14° S 20:24:42 71° E 20:31:06 10° NNE
CZ-2C R/B 3.8 20:21:08 10° N 20:25:37 74° WNW 20:30:01 10° SSW
SL-16 R/B 4.3 20:22:40 10° N 20:26:19 17° NE 20:29:58 10° ENE
SL-16 R/B 4.4 20:23:19 10° WNW 20:27:09 19° W 20:30:57 10° SW
Cosmos 1743 Rocket 3.6 20:25:39 26° SSE 20:28:02 60° E 20:32:24 10° NNE
GP-B 4.2 20:24:34 10° N 20:28:47 42° W 20:32:58 10° SSW
CARTOSAT-1 3.9 20:29:08 22° S 20:31:51 63° W 20:36:10 10° NNW
Cosmos 494 Rocket 4.3 20:31:20 28° SSE 20:33:30 42° ESE 20:38:19 10° NE
NOSS 3-1 (C) 4.4 20:27:40 10° NW 20:35:03 61° WSW 20:40:55 22° SSE
Lacrosse 5 2.4 20:33:37 22° S 20:36:03 35° SE 20:40:39 10° ENE
IRIDIUM 114 4.4 20:40:40 10° N 20:45:51 60° E 20:48:03 33° SSE
COSMOS 2487 2.6 20:45:40 23° SW 20:47:35 66° WNW 20:50:59 10° NNE
CZ-4C R/B 4.2 20:41:49 10° NW 20:47:44 32° NNE 20:54:39 10° E
Cosmos 468 4.4 20:47:13 22° S 20:50:38 73° ESE 20:55:52 10° NNE
CZ-4B DEB 4.2 20:50:28 62° E 20:50:40 64° ENE 20:53:48 10° N
COSMOS 2428 2.8 20:45:24 10° NNW 20:51:06 74° WSW 20:53:52 31° SSE
USA 229 DEB 4.0 20:46:01 10° NW 20:53:17 70° SW 20:57:36 29° SSE
USA 229 4.0 20:46:06 10° NW 20:53:23 71° SW 20:57:42 29° SSE
Meteor 1-25 Rocket 4.5 20:51:21 33° SSE 20:53:27 49° E 20:58:48 10° NNE
COSMOS 2455 3.0 20:48:11 10° SW 20:54:11 75° NW 21:00:15 10° NNE
IRIDIUM 103 4.3 20:49:48 10° N 20:55:02 72° E 20:57:11 36° SSE
Terra 1.8 20:54:31 34° S 20:56:34 78° WSW 21:01:21 10° NNW
Cosmos 2360 Rocket 4.1 20:56:19 10° NW 21:00:33 22° WSW 21:04:37 11° SSW
Cosmos 2084 Rocket 3.3 20:57:08 10° NW 21:01:20 87° SW 21:02:26 50° SE
Cosmos 1048 Rocket 3.9 20:59:48 20° SSW 21:03:25 87° WNW 21:08:35 10° NNE
Cosmos 972 Rocket 4.1 21:01:59 15° SSW 21:06:17 70° WNW 21:11:13 10° NNE
Cosmos 2219 4.2 21:06:24 28° ESE 21:06:43 28° ESE 21:11:31 10° NE
USA 102 4.3 21:08:33 44° NNW 21:08:33 44° NNW 21:15:38 10° NNW
USA 102 4.3 21:08:33 44° NNW 21:08:33 44° NNW 21:55:57 10° NW
Cosmos 1862 Rocket 4.4 21:03:33 10° N 21:07:31 34° ENE 21:08:11 32° E
Resurs 01 Rocket 4.5 21:09:22 10° W 21:10:13 10° W 21:11:05 10° WNW
Cosmos 489 Rocket 4.4 21:06:25 20° SSW 21:11:03 85° ESE 21:17:27 10° NNE
IRIDIUM 106 4.3 21:08:03 10° N 21:13:18 81° W 21:15:23 38° S
NOSS 3-1 (A) 4.4 21:06:29 10° NW 21:13:51 58° WSW 21:18:16 30° S
Cosmos 2266 Rocket 4.5 21:09:42 15° SSW 21:14:53 59° WNW 21:21:07 10° N
TSX-5 4.0 21:15:29 54° ESE 21:15:37 54° ESE 21:20:26 10° NE
Cosmos 1302 Rocket 4.3 21:10:30 10° NNW 21:15:40 57° ENE 21:17:19 39° ESE
Cosmos 1707 Rocket 3.5 21:11:28 10° N 21:15:52 71° E 21:16:40 55° SE
H-2A R/B 3.4 21:12:04 10° NNE 21:16:17 76° ESE 21:17:03 58° S
Meteor 1-19 Rocket 4.2 21:11:12 10° N 21:16:46 69° ENE 21:18:30 43° SE
Okean 1 3.3 21:13:01 10° N 21:17:00 62° ENE 21:17:20 59° ESE
Cosmos 1980 3.7 21:11:53 10° NNW 21:17:35 75° ENE 21:19:35 42° SE
NOSS 2-2 (D) 4.4 21:14:17 10° NW 21:19:26 75° NE 21:22:28 34° SE
ERS-1 Rocket 4.2 21:20:14 22° SW 21:22:45 35° W 21:27:21 10° NNW
Cosmos 1500 3.7 21:24:25 45° ENE 21:24:25 45° ENE 21:27:47 10° NNE
Cosmos 2228 Rocket 3.9 21:21:12 10° NNW 21:25:25 43° W 21:26:53 32° SW
Cosmos 1269 Rocket 4.2 21:30:12 46° SE 21:30:48 49° ESE 21:35:53 10° NNE
Cosmos 2297 Rocket 2.4 21:31:27 46° SE 21:32:24 52° ESE 21:37:54 10° NE
Cosmos 1805 Rocket 4.2 21:31:35 32° SW 21:33:19 51° WNW 21:37:38 10° N
SPOT 5 4.4 21:31:58 18° SW 21:33:50 24° W 21:37:30 10° NW
BREEZE-M DEB (TANK) 3.3 21:31:31 10° WNW 21:34:37 31° WSW 21:34:37 31° WSW
NOSS 0 Rocket 4.1 21:29:38 10° NW 21:35:47 61° WSW 21:37:53 40° S
Cosmos 2333 Rocket 3.9 21:31:41 10° NW 21:36:04 24° WSW 21:38:33 18° SW
USA 234 4.0 21:32:03 10° E 21:38:19 50° NNE 21:44:37 10° NW
Cosmos 2237 Rocket 2.1 21:33:17 10° NNW 21:39:00 83° WSW 21:40:34 50° SSE
Cosmos 2227 Rocket 2.4 21:44:50 47° SE 21:45:24 49° ESE 21:50:51 10° NE
ALOS 2 3.3 21:45:45 38° E 21:46:14 40° ENE 21:50:21 10° N
Cosmos 2219 Rocket 3.8 21:45:40 10° NW 21:49:52 22° WSW 21:51:54 18° SW
Cosmos 2263 Rocket 4.4 21:51:47 11° E 21:51:47 11° E 21:52:33 10° E
Cosmos 1745 Rocket 4.2 21:50:35 45° SE 21:52:10 58° E 21:58:22 10° NNE
Meteor 1-14 Rocket 4.2 21:51:39 54° SSE 21:52:50 70° E 21:58:31 10° NNE
Sich 1 4.1 21:53:28 30° WSW 21:54:50 39° WNW 21:58:54 10° N
ATLAS 5 CENTAUR R/B 3.5 21:52:20 10° WNW 21:57:18 30° WSW 21:58:38 28° SW
BREEZE-M DEB (TANK) 4.2 21:46:49 10° WSW 21:59:56 61° S 22:02:12 32° E
Nadezhda 1 Rocket 4.0 21:58:25 10° N 22:04:51 83° E 22:06:40 50° SSE
Cosmos 1633 Rocket 3.5 22:10:52 50° WSW 22:11:21 54° WNW 22:15:38 10° N
Cosmos 44 4.2 22:06:14 10° NNW 22:11:22 47° NE 22:13:03 35° E
SL-16 R/B 2.3 22:05:52 10° NNW 22:11:33 68° ENE 22:12:56 50° ESE
Cosmos 1470 Rocket 3.4 22:14:08 85° WNW 22:14:08 85° WNW 22:18:27 10° N
Cosmos 1666 3.0 22:15:50 64° N 22:15:50 64° N 22:19:10 10° N
Lacrosse 5 2.3 22:13:49 10° WSW 22:18:51 61° NNW 22:23:53 10° NE
Cosmos 1933 Rocket 3.6 22:20:15 72° ENE 22:20:15 72° ENE 22:24:32 10° NNE
Timation 1 Rocket 4.2 22:21:27 58° S 22:22:36 75° ESE 22:28:37 10° NNE
Cosmos 1340 Rocket 3.1 22:28:39 63° N 22:28:39 63° N 22:32:02 10° N
Cosmos 2251 Rocket 3.9 22:34:43 49° ESE 22:34:44 49° ESE 22:39:52 10° NNE
Terra 4.4 22:34:56 10° W 22:35:08 10° W 22:35:18 10° W
CZ-4C R/B 3.0 22:30:09 10° NW 22:37:17 81° NE 22:41:11 35° SE
Meteor 2-4 Rocket 4.3 22:33:56 10° NNW 22:39:34 47° W 22:40:46 41° SW
Cosmos 1943 4.5 22:34:28 10° NNW 22:39:41 35° NE 22:42:41 21° E
CZ-3B R/B 3.8 22:35:48 10° WNW 22:39:48 24° W 22:39:48 24° W
Timation 2 Rocket 3.8 22:39:27 54° SSW 22:40:56 90° WNW 22:47:12 10° NNE
ATLAS CENTAUR R/B 3.4 22:44:53 17° ENE 22:44:53 17° ENE 22:46:11 10° ENE
Cosmos 1992 Rocket 4.0 22:37:46 10° NNW 22:42:57 65° WSW 22:43:15 63° SW
Cosmos 1544 4.2 22:44:14 39° NNE 22:44:14 39° NNE 22:46:41 10° NNE
Cosmos 2242 Rocket 3.6 22:40:21 10° NNW 22:44:34 71° WNW 22:44:34 71° WNW
USA 267 3.2 22:39:54 10° ENE 22:46:27 67° SE 22:48:10 49° SSW
Cosmos 2219 3.7 22:48:18 34° WSW 22:50:33 55° WNW 22:56:14 10° NNE
Cosmos 1066 Rocket 4.2 22:48:35 10° NNW 22:54:29 82° W 22:55:26 64° S
ATLAS 2AS CENTAUR R/B 4.5 22:54:43 10° NW 23:01:22 32° NNE 23:07:35 10° E
Cosmos 1703 Rocket 4.2 22:57:26 10° NNW 23:01:20 46° W 23:01:20 46° W
Cosmos 2082 3.6 23:01:12 62° SW 23:02:14 86° WNW 23:08:01 10° NNE
NOSS 3-3 (A) 4.1 23:02:53 48° SE 23:03:10 49° ESE 23:09:22 10° NE
NOSS 3-3 (C) 4.1 23:03:01 48° SE 23:03:16 48° ESE 23:09:27 10° NE
Meteor 1-11 Rocket 3.6 23:05:19 64° SW 23:06:08 78° W 23:11:43 10° N
Cosmos 1733 Rocket 4.1 23:09:45 36° E 23:09:45 36° E 23:13:39 10° NNE
Okean 1-7 4.0 23:06:02 10° NNW 23:09:33 37° WNW 23:09:33 37° WNW
Cosmos 2181 Rocket 3.9 23:05:08 10° N 23:11:28 84° W 23:12:46 58° S
Cosmos 1140 Rocket 4.0 23:16:10 45° ESE 23:16:18 45° ESE 23:21:16 10° NNE
Cosmos 2297 Rocket 3.6 23:13:12 17° WSW 23:16:43 32° NW 23:21:47 10° NNE
Nimbus 7 Rocket 4.5 23:11:26 10° NNE 23:17:24 71° WNW 23:18:52 51° SW
SL-16 R/B 4.1 23:15:36 12° ESE 23:20:18 28° ENE 23:25:26 10° N
Meteor 1-23 Rocket 4.2 23:14:57 10° NNW 23:20:43 76° W 23:21:35 63° SSW
USA 234 3.1 23:18:04 35° SE 23:21:07 82° SW 23:27:43 10° NW
Cosmos 2221 Rocket 3.7 23:17:02 10° N 23:21:37 67° E 23:21:41 67° E
Cosmos 2237 Rocket 4.2 23:19:21 10° WNW 23:22:09 14° W 23:22:23 14° W
ALOS 2 4.2 23:23:09 23° W 23:23:09 23° W 23:26:17 10° NW
Cosmos 614 Rocket 3.9 23:23:41 66° WSW 23:24:19 75° WNW 23:29:35 10° NNE
Cosmos 1461 3.4 23:27:18 56° WNW 23:27:39 58° NW 23:32:00 10° NNE
Cosmos 2227 Rocket 3.5 23:26:37 20° W 23:29:40 33° NW 23:34:48 10° NNE
Meteor 2-12 Rocket 4.5 23:29:20 54° SSE 23:30:41 70° E 23:36:49 10° NNE
SL-24 R/B - RUBIN 2 3.6 23:27:39 10° NW 23:32:44 86° SW 23:32:44 86° SW
Nadezhda 3 Rocket 4.4 23:27:40 10° N 23:33:57 58° ENE 23:36:11 39° SE
Cosmos 2263 Rocket 2.2 23:33:28 61° SSE 23:34:11 67° ESE 23:39:52 10° NNE
Cosmos 2344 3.7 23:34:40 44° SSE 23:36:33 54° ESE 23:44:01 10° NE
Cosmos 1603 3.6 23:34:34 10° NNW 23:40:14 85° ENE 23:41:32 56° SE
Cosmos 1536 4.1 23:40:44 31° WNW 23:40:44 31° WNW 23:44:12 10° N
PSLV R/B 3.8 23:37:32 10° N 23:42:16 66° WNW 23:42:34 64° W
Okean 2 3.9 23:38:34 10° N 23:42:40 51° ENE 23:42:44 51° E
Cosmos 1842 3.6 23:40:58 10° N 23:44:12 61° N 23:44:12 61° N
ASTEX 1 3.2 23:46:47 73° SSE 23:47:16 86° E 23:52:15 10° N
ARGOS Delta rocket 3.7 23:44:09 10° NNE 23:48:39 66° E 23:48:43 66° ESE
Meteor 2-9 Rocket 4.0 23:50:41 62° SSE 23:51:32 77° E 23:57:01 10° NNE
Thor Agena Rocket 3.8 23:46:48 10° N 23:51:43 53° WNW 23:52:34 47° WSW
YAOGAN 11 4.3 23:52:25 60° ESE 23:52:56 66° ENE 23:57:22 10° N
SL-16 R/B 3.7 23:50:56 10° NW 23:54:47 21° W 23:54:47 21° W
